Waarnemingen

Advertentie
Mijn weer
Kempten, Duitsland (10946): temperatuur & dauwpunt: 20.05.2018 23:00:00 - 26.05.2018 23:00:00 (CEST)Kempten, Duitsland (10946): temperatuur 5cm & temperatuur -5cm: 20.05.2018 23:00:00 - 26.05.2018 23:00:00 (CEST)Kempten, Duitsland (10946): temperatuur -20cm & temperatuur -100cm: 20.05.2018 23:00:00 - 26.05.2018 23:00:00 (CEST)Kempten, Duitsland (10946): windsnelheid & windstoten: 20.05.2018 23:00:00 - 26.05.2018 23:00:00 (CEST)Kempten, Duitsland (10946): windrichting: 20.05.2018 23:00:00 - 26.05.2018 23:00:00 (CEST)Kempten, Duitsland (10946): luchtdruk: 20.05.2018 23:00:00 - 26.05.2018 23:00:00 (CEST)Kempten, Duitsland (10946): zicht: 20.05.2018 23:00:00 - 26.05.2018 23:00:00 (CEST)Kempten, Duitsland (10946): Zonneschijnduur: 20.05.2018 23:00:00 - 26.05.2018 23:00:00 (CEST)Kempten, Duitsland (10946): neerslag: 20.05.2018 23:00:00 - 26.05.2018 23:00:00 (CEST)
Datum & Tijd tt [°C] td [°C] tt 5cm [°C] tt -5cm [°C] tt -20cm [°C] tt -100cm [°C] ff [km/u] ff [kn] fx [km/u] fx [kn] dd ppp [hPa] vv [km] sd [min] rr [mm]
26.05.2018 23:00:00 15,7 12,8 13,5 19,1 20,6 13,3 2 1 7 4 - 1020,5 21 0 0,0
26.05.2018 22:00:00 17,7 13,0 15,1 20,3 20,9 13,3 5 3 9 5 - 1019,6 30 0 0,0
26.05.2018 21:00:00 20,5 12,2 18,3 21,9 21,2 13,3 6 3 10 5 - 1018,5 50 33 0,0
26.05.2018 20:00:00 21,5 12,5 21,6 23,3 21,4 13,2 5 3 11 6 - 1018,1 50 1 0,0
26.05.2018 19:00:00 22,6 12,3 22,9 24,4 21,4 13,2 6 4 25 14 - 1017,3 49 0 0,0
26.05.2018 18:00:00 23,9 12,3 25,4 25,9 21,1 13,2 8 5 19 10 - 1016,7 57 22 0,0
26.05.2018 17:00:00 25,0 12,4 28,9 28,0 20,6 13,2 8 5 20 11 - 1016,3 58 52 0,0
26.05.2018 16:00:00 25,3 10,6 30,3 27,5 19,9 13,2 10 5 21 11 - 1016,2 32 56 0,0
26.05.2018 15:00:00 25,2 7,9 30,2 27,4 19,1 13,2 5 3 15 8 - 1016,5 36 60 0,0
26.05.2018 14:00:00 25,0 8,2 29,4 25,7 18,3 13,2 8 4 16 8 - 1016,7 26 60 0,0
26.05.2018 13:00:00 25,0 11,6 29,8 24,4 17,5 13,2 8 4 19 11 - 1016,6 29 60 0,0
26.05.2018 12:00:00 23,2 11,0 27,4 22,7 16,8 13,2 8 4 16 9 - 1017,1 44 60 0,0
26.05.2018 11:00:00 22,6 11,5 27,0 21,2 16,1 13,2 6 3 14 8 - 1017,1 36 60 0,0
26.05.2018 10:00:00 20,2 12,1 23,9 18,5 15,6 13,2 4 2 7 4 - 1017,6 40 58 0,0
26.05.2018 09:00:00 17,7 11,0 20,7 16,2 15,5 13,2 4 2 7 4 - 1018,5 41 60 0,0
26.05.2018 08:00:00 14,9 10,3 13,5 13,7 15,7 13,2 4 2 9 5 - 1019,2 41 60 0,0
26.05.2018 07:00:00 10,9 9,5 11,3 12,6 16,0 13,2 8 4 10 6 - 1020,2 22 12 0,0
26.05.2018 06:00:00 9,8 9,0 8,9 12,7 16,4 13,1 8 4 11 6 - 1020,2 13 0 0,0
26.05.2018 05:00:00 10,5 9,6 9,1 13,2 16,7 13,1 9 5 12 6 - 1019,8 13 0 0,0
26.05.2018 04:00:00 10,8 10,0 9,6 13,7 17,1 13,1 8 4 10 5 - 1019,8 18 0 0,0
26.05.2018 03:00:00 11,1 10,3 9,9 14,3 17,5 13,1 7 4 10 5 - 1019,6 10 0 0,0
26.05.2018 02:00:00 11,9 11,1 10,3 15,0 17,9 13,1 5 3 8 4 - 1019,4 12 0 0,0
26.05.2018 01:00:00 12,9 11,2 11,3 15,8 18,3 13,1 5 3 7 4 - 1019,3 18 0 0,0
26.05.2018 00:00:00 14,4 11,7 11,9 16,5 18,8 13,1 4 2 13 7 - 1018,9 28 0 0,0
25.05.2018 23:00:00 16,7 11,8 14,5 17,4 19,2 13,1 7 4 15 8 - 1018,0 39 0 0,0
25.05.2018 22:00:00 17,4 11,5 15,4 18,8 19,5 13,1 5 3 10 6 - 1017,7 43 0 0,0
25.05.2018 21:00:00 20,1 11,5 18,4 20,1 19,7 13,1 3 1 12 6 - 1016,4 49 25 0,0
25.05.2018 20:00:00 21,4 11,1 21,6 21,4 19,8 13,1 6 4 16 9 - 1015,6 54 46 0,0
25.05.2018 19:00:00 22,7 11,3 25,9 22,7 19,8 13,1 9 5 17 9 - 1015,0 36 45 0,0
25.05.2018 18:00:00 23,1 9,5 25,8 23,6 19,5 13,1 7 4 16 9 - 1014,9 57 43 0,0
25.05.2018 17:00:00 23,2 9,3 26,8 24,7 19,1 13,1 9 5 18 10 - 1015,0 54 49 0,0
25.05.2018 16:00:00 23,6 10,6 27,6 24,8 18,6 13,1 7 4 16 9 - 1014,8 23 45 0,0
25.05.2018 15:00:00 23,0 10,1 25,9 24,7 18,0 13,1 8 4 15 8 - 1015,0 30 40 0,0
25.05.2018 14:00:00 22,4 10,9 27,9 24,3 17,2 13,1 6 4 19 10 - 1015,4 39 53 0,0
25.05.2018 13:00:00 21,3 10,1 25,6 22,7 16,4 13,0 8 4 21 11 - 1016,0 39 45 0,0
25.05.2018 12:00:00 21,0 11,4 27,1 21,8 15,6 13,0 6 3 15 8 - 1016,2 43 58 0,0
25.05.2018 11:00:00 20,3 11,1 24,3 19,7 14,9 13,0 8 4 14 8 - 1016,5 22 60 0,0
25.05.2018 10:00:00 18,5 9,9 21,7 17,3 14,5 13,0 3 2 9 5 - 1017,0 41 60 0,0
25.05.2018 09:00:00 16,1 10,5 19,2 14,9 14,4 13,0 6 3 15 8 - 1017,8 40 60 0,0
25.05.2018 08:00:00 13,4 9,8 12,6 12,6 14,5 13,0 8 4 14 7 - 1018,5 29 60 0,0
25.05.2018 07:00:00 11,5 8,9 11,2 11,6 14,7 13,0 6 4 16 9 - 1019,1 42 12 0,0
25.05.2018 06:00:00 10,4 8,9 9,0 11,6 15,0 13,0 10 5 16 8 - 1019,2 22 0 0,0
25.05.2018 05:00:00 10,6 9,1 9,0 12,0 15,3 13,0 9 5 14 7 - 1019,2 34 0 0,0
25.05.2018 04:00:00 11,0 9,7 9,4 12,3 15,7 13,0 7 4 14 8 - 1019,2 35 0 0,0
25.05.2018 03:00:00 11,2 9,9 9,6 12,8 16,0 13,0 7 4 15 8 - 1019,2 44 0 0,0
25.05.2018 02:00:00 10,9 10,1 9,5 13,2 16,4 13,0 7 4 13 7 - 1019,5 16 0 0,0
25.05.2018 01:00:00 11,2 10,6 10,2 13,8 16,8 13,0 9 5 11 6 - 1019,5 17 0 0,0
25.05.2018 00:00:00 11,6 11,0 10,2 14,5 17,1 12,9 6 4 8 5 - 1019,2 8 0 0,0
24.05.2018 23:00:00 12,6 11,5 11,0 15,4 17,5 12,9 3 2 9 5 - 1019,1 22 0 0,0
24.05.2018 22:00:00 13,5 11,8 11,9 16,4 17,7 12,9 2 1 14 8 - 1018,5 35 0 0,0
24.05.2018 21:00:00 15,8 11,8 14,6 17,5 17,9 12,9 6 3 16 9 - 1017,4 58 6 0,0
24.05.2018 20:00:00 16,8 11,5 17,0 18,4 17,9 12,9 10 6 20 11 - 1016,5 67 46 0,0
24.05.2018 19:00:00 16,7 11,5 17,2 19,3 17,9 12,9 9 5 21 12 - 1016,2 65 20 0,0
24.05.2018 18:00:00 16,7 12,5 16,7 19,3 17,9 12,9 11 6 22 12 - 1016,1 45 3 0,0
24.05.2018 17:00:00 17,1 13,0 17,2 19,4 17,9 12,9 6 3 13 7 N 1016,1 45 0 0,1
24.05.2018 16:00:00 17,2 13,1 16,7 19,7 17,7 12,9 6 4 13 7 N 1016,1 40 0 1,1
24.05.2018 15:00:00 18,8 12,7 19,2 20,6 17,4 12,9 4 2 11 6 N 1015,8 42 4 0,0
24.05.2018 14:00:00 19,1 12,3 22,3 21,3 17,0 12,9 8 4 14 8 N 1016,0 36 32 0,0
24.05.2018 13:00:00 17,3 14,1 18,8 18,8 16,7 12,9 6 3 14 8 N 1017,0 26 1 3,4
24.05.2018 12:00:00 17,6 11,8 18,5 20,0 16,3 12,8 8 4 17 9 NNW 1017,3 32 10 0,0
24.05.2018 11:00:00 18,2 11,7 20,1 19,6 15,8 12,8 5 3 11 6 N 1017,2 42 27 0,0
24.05.2018 10:00:00 17,0 12,3 19,4 17,1 15,6 12,8 6 3 12 7 N 1017,6 42 5 0,0
24.05.2018 09:00:00 15,2 12,0 16,8 15,4 15,6 12,8 6 3 15 8 Z 1018,2 34 0 0,0
24.05.2018 08:00:00 13,6 11,7 13,7 14,5 15,7 12,8 6 4 11 6 Z 1018,4 36 0 0,0
24.05.2018 07:00:00 13,1 11,1 12,5 14,0 15,9 12,8 0 0 8 5 N 1018,4 37 0 0,0
24.05.2018 06:00:00 12,0 11,2 11,6 13,7 16,1 12,8 6 3 9 5 ZO 1018,2 29 0 0,0
24.05.2018 05:00:00 11,4 10,7 10,6 13,9 16,4 12,8 4 2 10 5 OZO 1018,6 14 0 0,0
24.05.2018 04:00:00 12,8 11,4 11,2 14,5 16,7 12,8 6 4 12 7 Z 1018,1 42 0 0,0
24.05.2018 03:00:00 13,2 11,8 12,2 15,0 17,0 12,8 5 3 9 5 ZZO 1017,9 23 0 0,0
24.05.2018 02:00:00 12,7 11,6 12,2 15,3 17,3 12,8 5 3 6 4 OZO 1018,0 15 0 0,0
24.05.2018 01:00:00 13,4 11,8 12,2 15,8 17,6 12,8 5 3 9 5 O 1017,9 19 0 0,0
24.05.2018 00:00:00 14,5 11,7 13,6 16,3 17,9 12,8 4 2 12 6 NW 1017,4 30 0 0,0
23.05.2018 23:00:00 14,9 12,0 14,1 16,9 18,2 12,8 3 2 7 4 O 1017,0 30 0 0,0
23.05.2018 22:00:00 15,3 12,1 14,1 17,6 18,5 12,7 5 3 11 6 ZO 1016,0 36 0 0,0
23.05.2018 21:00:00 16,5 11,8 15,7 18,6 18,8 12,7 5 3 24 13 ONO 1016,0 42 2 0,0
23.05.2018 20:00:00 17,2 11,8 17,1 20,0 18,8 12,7 12 6 34 19 O 1015,3 37 25 0,0
23.05.2018 19:00:00 20,5 11,5 22,4 21,5 18,7 12,7 5 3 13 7 N 1013,5 32 27 0,2
23.05.2018 18:00:00 19,5 14,5 18,8 22,1 18,6 12,7 6 3 13 7 NNW 1014,2 17 36 0,0
23.05.2018 17:00:00 17,5 13,7 17,0 21,3 18,4 12,7 5 3 18 10 N 1014,7 21 1 1,6
23.05.2018 16:00:00 21,0 11,1 24,5 23,4 17,9 12,7 8 4 19 10 - 1013,9 27 42 0,0
23.05.2018 15:00:00 20,0 11,3 22,4 22,4 17,4 12,7 7 4 17 9 - 1014,7 34 16 0,0
23.05.2018 14:00:00 20,0 9,0 24,8 22,6 16,8 12,7 6 3 17 9 - 1015,1 48 44 0,0
23.05.2018 13:00:00 19,0 11,2 21,2 21,3 16,2 12,7 6 3 16 9 - 1015,8 48 25 0,0
23.05.2018 12:00:00 18,8 10,5 23,1 20,5 15,6 12,7 7 4 17 9 - 1015,8 63 25 0,0
23.05.2018 11:00:00 17,4 11,5 20,0 18,5 15,2 12,7 8 4 14 7 - 1016,2 39 0 0,0
23.05.2018 10:00:00 16,2 10,8 17,8 17,0 14,9 12,7 6 3 12 7 - 1016,4 53 1 0,0
23.05.2018 09:00:00 15,4 10,4 17,5 15,7 14,8 12,7 7 4 13 7 - 1016,4 51 39 0,0
23.05.2018 08:00:00 13,4 10,5 12,7 13,2 14,9 12,6 6 4 11 6 - 1016,5 26 28 0,0
23.05.2018 07:00:00 11,6 10,7 11,1 12,8 15,1 12,6 5 3 10 5 - 1016,5 26 0 0,0
23.05.2018 06:00:00 10,6 10,0 9,5 12,9 15,4 12,6 5 3 10 5 - 1016,6 8 0 0,0
23.05.2018 05:00:00 12,0 10,8 10,3 13,5 15,6 12,6 3 1 7 4 - 1015,8 16 0 0,0
23.05.2018 04:00:00 12,5 10,8 11,5 13,9 15,9 12,6 3 1 13 7 - 1015,7 27 0 0,0
23.05.2018 03:00:00 12,7 10,9 11,6 14,2 16,1 12,6 6 3 11 6 - 1015,1 36 0 0,0
23.05.2018 02:00:00 13,2 10,8 12,5 14,5 16,4 12,6 8 5 19 10 - 1014,8 39 0 0,0
23.05.2018 01:00:00 13,7 10,8 12,9 14,9 16,6 12,6 8 4 15 8 - 1014,4 43 0 0,0
23.05.2018 00:00:00 13,3 11,3 12,7 15,2 16,9 12,6 6 3 15 8 - 1014,2 37 0 0,0
22.05.2018 23:00:00 13,6 11,0 13,0 15,8 17,2 12,6 10 6 20 11 - 1014,1 42 0 0,0
22.05.2018 22:00:00 14,1 10,8 13,0 16,6 17,5 12,6 6 3 12 6 - 1013,4 42 0 0,0
22.05.2018 21:00:00 14,4 10,2 13,9 17,5 17,6 12,6 5 3 9 5 - 1012,7 52 0 0,0
22.05.2018 20:00:00 15,7 10,5 15,9 18,7 17,7 12,6 4 2 13 7 - 1011,6 53 24 0,0
22.05.2018 19:00:00 16,6 11,0 16,9 19,6 17,6 12,6 6 3 14 7 - 1010,9 41 37 0,0
22.05.2018 18:00:00 17,6 10,0 19,6 19,5 17,6 12,6 8 4 17 9 - 1010,3 70 26 0,0
22.05.2018 17:00:00 15,9 11,7 16,7 18,7 17,7 12,6 6 4 12 7 - 1010,6 41 0 0,0
22.05.2018 16:00:00 14,3 12,5 14,2 18,1 17,7 12,6 6 3 27 15 - 1011,5 26 0 11,3
22.05.2018 15:00:00 19,0 11,9 18,7 22,1 17,4 12,6 9 5 14 7 - 1010,0 14 0 0,0
22.05.2018 14:00:00 21,3 9,6 24,9 22,1 17,0 12,6 3 2 16 9 - 1009,4 39 19 0,0
22.05.2018 13:00:00 20,0 8,9 22,0 21,8 16,4 12,6 5 3 18 10 - 1010,0 50 31 0,0
22.05.2018 12:00:00 21,0 10,4 25,2 21,8 15,7 12,5 7 4 16 9 - 1009,7 27 59 0,0
22.05.2018 11:00:00 19,3 9,7 23,0 20,2 15,0 12,5 8 4 15 8 - 1010,3 40 60 0,0
22.05.2018 10:00:00 18,6 8,7 21,3 18,2 14,5 12,5 5 3 8 4 - 1010,6 33 60 0,0
22.05.2018 09:00:00 16,2 8,8 19,5 16,1 14,3 12,5 5 3 13 7 - 1011,4 28 49 0,0
22.05.2018 08:00:00 13,4 9,4 14,2 13,1 14,4 12,5 5 3 10 5 - 1012,1 42 9 0,0
22.05.2018 07:00:00 11,6 8,6 11,2 12,4 14,6 12,5 6 3 12 6 - 1012,4 52 0 0,0
22.05.2018 06:00:00 11,0 8,8 9,7 12,2 14,8 12,5 7 4 10 5 - 1012,4 48 0 0,0
22.05.2018 05:00:00 10,5 9,0 8,7 12,6 15,1 12,5 7 4 9 5 - 1012,4 39 0 0,0
22.05.2018 04:00:00 11,3 9,4 10,0 13,1 15,3 12,5 0 0 10 5 N 1012,1 45 0 0,0
22.05.2018 03:00:00 11,1 9,7 10,6 13,3 15,6 12,5 6 3 9 5 - 1012,3 36 0 0,0
22.05.2018 02:00:00 11,1 9,5 10,6 13,5 15,9 12,5 6 3 10 5 - 1012,3 29 0 0,0
22.05.2018 01:00:00 10,7 9,3 10,0 13,7 16,3 12,5 5 3 10 5 - 1012,6 25 0 0,0
22.05.2018 00:00:00 11,4 9,7 10,0 14,4 16,7 12,5 7 4 9 5 - 1012,8 31 0 0,0
21.05.2018 23:00:00 13,0 10,3 11,4 15,4 17,1 12,5 6 3 10 5 - 1012,5 39 0 0,0
21.05.2018 22:00:00 13,0 10,4 10,8 16,3 17,4 12,5 3 1 8 5 - 1012,4 50 0 0,0
21.05.2018 21:00:00 15,4 10,7 13,1 18,0 17,6 12,5 3 1 7 4 - 1011,4 58 3 0,0
21.05.2018 20:00:00 19,2 8,1 18,6 19,7 17,7 12,5 5 3 16 9 - 1010,4 67 56 0,0
21.05.2018 19:00:00 20,3 6,7 22,4 21,9 17,5 12,5 6 4 16 9 - 1010,0 64 59 0,0
21.05.2018 18:00:00 19,5 8,4 22,2 23,1 17,2 12,5 10 5 19 10 - 1010,2 33 60 0,0
21.05.2018 17:00:00 19,5 12,2 20,9 20,9 17,0 12,5 4 2 17 9 - 1010,7 48 19 0,6
21.05.2018 16:00:00 18,5 9,3 17,5 21,1 16,8 12,5 8 4 17 9 - 1011,5 48 18 0,0
21.05.2018 15:00:00 20,2 12,1 20,0 21,5 16,3 12,5 6 3 18 10 - 1010,8 19 23 0,6
21.05.2018 14:00:00 20,2 8,0 21,3 22,2 15,6 12,5 8 5 19 11 - 1011,3 66 33 0,0
21.05.2018 13:00:00 20,8 9,8 24,1 22,7 14,7 12,5 9 5 19 10 - 1011,5 22 60 0,0
21.05.2018 12:00:00 19,3 8,4 22,3 20,8 13,8 12,5 8 4 15 8 - 1012,4 49 60 0,0
21.05.2018 11:00:00 17,7 7,7 20,3 18,4 13,1 12,5 5 3 13 7 - 1013,1 49 60 0,0
21.05.2018 10:00:00 16,2 10,7 16,6 15,5 12,6 12,5 6 3 12 7 - 1013,6 27 60 0,0
21.05.2018 09:00:00 14,3 10,3 14,5 13,1 12,5 12,5 0 0 9 5 N 1014,5 37 60 0,0
21.05.2018 08:00:00 10,9 8,6 9,8 10,3 12,6 12,5 4 2 13 7 - 1015,3 30 60 0,0
21.05.2018 07:00:00 8,4 7,8 8,0 9,6 12,8 12,5 5 3 9 5 - 1016,3 22 12 0,0
21.05.2018 06:00:00 7,1 6,8 6,1 9,9 13,1 12,5 8 4 11 6 - 1016,4 8 0 0,0
21.05.2018 05:00:00 8,8 8,6 8,3 10,3 13,4 12,5 5 3 11 6 - 1015,9 0,7 0 0,0
21.05.2018 04:00:00 8,1 8,0 7,1 10,4 13,7 12,5 6 3 11 6 - 1016,3 0,3 0 0,0
21.05.2018 03:00:00 8,1 7,7 6,7 10,9 14,0 12,5 5 3 8 4 - 1016,3 4,2 0 0,0
21.05.2018 02:00:00 9,3 8,6 7,6 11,5 14,3 12,5 6 3 13 7 - 1016,2 15 0 0,0
21.05.2018 01:00:00 9,4 8,9 8,2 12,1 14,5 12,5 6 3 10 5 - 1016,7 2,7 0 0,0
21.05.2018 00:00:00 10,7 10,0 9,5 13,0 14,8 12,5 0 0 9 5 N 1016,5 4,4 0 0,0
20.05.2018 23:00:00 11,4 10,7 10,9 13,5 15,0 12,5 6 3 8 5 - 1016,7 13 0 0,0

tt = temperatuur
td = dauwpunt
tt 5cm = temperatuur 5cm
tt -5cm = temperatuur -5cm
tt -20cm = temperatuur -20cm
tt -100cm = temperatuur -100cm
ff = windsnelheid
fx = windstoten
dd = windrichting
ppp = luchtdruk
vv = zicht
sd = Zonneschijnduur
rr = neerslag

Weerstations in de omgeving